STARLINK-36727

Last updated on Mon Mar 23 2026 00:02:07 GMT+0000 (Coordinated Universal Time)

1 67875U 26034AB 26080.91423741 .00621173 00000+0 29033-2 0 9993 2 67875 53.1575 149.8701 0001761 36.8320 323.2824 15.81072762 5871
UTC large
Height (km)
Speed (km/s)
/
Latitude / Longitude
Inclination (degrees)
Orbital Period (minutes)
Azimuth
Elevation
Range (km)
Doppler Factor

Next 0 passes for location: London (51.5072 / 0.1276)

Sorry there are no passes over London.